Weather History for St. George, UT

Change the Weather History Date:

Tuesday, April 23, 2013

  Actual Average Record
Temperature  
Mean Temperature 60 °F -  
Max Temperature 69 °F 79 °F 95 °F (1949)
Min Temperature 51 °F 47 °F 33 °F (1963)
Degree Days  
Heating Degree Days 5    
Growing Degree Days 10 (Base 50)    
Moisture  
Dew Point 11 °F    
Average Humidity 15    
Maximum Humidity 21    
Minimum Humidity 10    
Precipitation  
Precipitation 0.00 in - - ()
Sea Level Pressure  
Sea Level Pressure 30.06 in    
Wind  
Wind Speed 16 mph (NE)    
Max Wind Speed 29 mph    
Max Gust Speed 38 mph    
Visibility 10 miles    
Events      
Averages and records for this station are not official NWS values.
T = Trace of Precipitation, MM = Missing Value Source: NWS Daily Summary

Daily Weather History Graph

Daily Weather History Graph

Search for Another Location

Airport:

Trip Planner

Search our weather history database for the weather conditions in past years. The results will help you decide how hot, cold, wet, or windy it might be!

Date:

Astronomy

Apr. 23, 2013 Rise Set
Actual Time 6:49 AM MDT 8:16 PM MDT
Civil Twilight 6:21 AM MDT 8:44 PM MDT
Nautical Twilight 5:48 AM MDT 9:17 PM MDT
Astronomical Twilight 5:14 AM MDT 9:51 PM MDT
Moon 6:18 PM MDT (4/23) 5:16 AM MDT (4/23)
Length of Visible Light 14h 22m
Length of Day
13h 27m
Waxing Gibbous, 94% of the Moon is Illuminated
Apr 23
Waxing Gibbous
Apr 25
Full
May 2
Last Quarter
May 9
New
May 17
First Quarter

Hourly Weather History & Observations

Time (MDT) Temp. Dew Point Humidity Pressure Visibility Wind Dir Wind Speed Gust Speed Precip Events Conditions
12:15 AM 62.6 °F 19.4 °F 19% 29.89 in 10.0 mi ENE 17.3 mph 33.4 mph N/A   Clear
12:35 AM 60.8 °F 19.4 °F 20% 29.91 in 10.0 mi ENE 17.3 mph 25.3 mph N/A   Clear
12:55 AM 60.8 °F 17.6 °F 19% 29.94 in 10.0 mi SSE 12.7 mph - N/A   Clear
1:15 AM 60.8 °F 19.4 °F 20% 29.95 in 10.0 mi South 5.8 mph - N/A   Clear
1:35 AM 59.0 °F 15.8 °F 19% 29.95 in 10.0 mi East 24.2 mph 28.8 mph N/A   Clear
1:55 AM 60.8 °F 17.6 °F 19% 29.96 in 10.0 mi ENE 6.9 mph 27.6 mph N/A   Clear
2:15 AM 59.0 °F 15.8 °F 19% 29.96 in 10.0 mi NE 18.4 mph 27.6 mph N/A   Clear
3:35 AM 55.4 °F 14.0 °F 20% 30.01 in 10.0 mi NE 15.0 mph 21.9 mph N/A   Clear
4:15 AM 55.4 °F 12.2 °F 18% 30.03 in 10.0 mi NE 21.9 mph 32.2 mph N/A   Clear
4:35 AM 55.4 °F 12.2 °F 18% 30.03 in 10.0 mi ENE 24.2 mph 34.5 mph N/A   Clear
4:55 AM 53.6 °F 10.4 °F 18% 30.04 in 10.0 mi NE 24.2 mph 29.9 mph N/A   Clear
5:15 AM 53.6 °F 12.2 °F 19% 30.05 in 10.0 mi NE 26.5 mph 34.5 mph N/A   Clear
5:35 AM 53.6 °F 12.2 °F 19% 30.05 in 10.0 mi NE 27.6 mph 33.4 mph N/A   Clear
5:55 AM 53.6 °F 10.4 °F 18% 30.06 in 10.0 mi ENE 24.2 mph 34.5 mph N/A   Clear
6:15 AM 51.8 °F 10.4 °F 19% 30.07 in 10.0 mi NE 25.3 mph 38.0 mph N/A   Clear
6:35 AM 51.8 °F 12.2 °F 21% 30.09 in 10.0 mi NE 25.3 mph 34.5 mph N/A   Clear
6:55 AM 51.8 °F 12.2 °F 21% 30.10 in 10.0 mi NE 28.8 mph 38.0 mph N/A   Clear
7:15 AM 51.8 °F 12.2 °F 21% 30.12 in 10.0 mi NE 24.2 mph 33.4 mph N/A   Clear
7:35 AM 51.8 °F 12.2 °F 21% 30.13 in 10.0 mi NE 24.2 mph 31.1 mph N/A   Clear
7:55 AM 51.8 °F 12.2 °F 21% 30.14 in 10.0 mi NE 20.7 mph 33.4 mph N/A   Clear
8:15 AM 51.8 °F 12.2 °F 21% 30.15 in 10.0 mi NE 25.3 mph 29.9 mph N/A   Clear
8:35 AM 53.6 °F 12.2 °F 19% 30.16 in 10.0 mi NE 27.6 mph 34.5 mph N/A   Clear
8:55 AM 53.6 °F 12.2 °F 19% 30.17 in 10.0 mi NE 21.9 mph 32.2 mph N/A   Clear
9:15 AM 53.6 °F 12.2 °F 19% 30.17 in 10.0 mi NE 25.3 mph 34.5 mph N/A   Clear
9:35 AM 55.4 °F 12.2 °F 18% 30.18 in 10.0 mi NE 24.2 mph 33.4 mph N/A   Clear
9:55 AM 55.4 °F 12.2 °F 18% 30.17 in 10.0 mi NE 26.5 mph 34.5 mph N/A   Clear
10:15 AM 55.4 °F 14.0 °F 20% 30.17 in 10.0 mi NNE 24.2 mph 31.1 mph N/A   Clear
11:15 AM 59.0 °F 12.2 °F 16% 30.18 in 10.0 mi North 9.2 mph - N/A   Clear
11:35 AM 60.8 °F 12.2 °F 15% 30.18 in 10.0 mi NE 12.7 mph 21.9 mph N/A   Clear
11:55 AM 60.8 °F 12.2 °F 15% 30.18 in 10.0 mi NE 12.7 mph 21.9 mph N/A   Clear
12:35 PM 64.4 °F 12.2 °F 13% 30.15 in 10.0 mi ENE 17.3 mph 24.2 mph N/A   Clear
12:55 PM 64.4 °F 12.2 °F 13% 30.15 in 10.0 mi North 11.5 mph 21.9 mph N/A   Clear
1:15 PM 64.4 °F 12.2 °F 13% 30.13 in 10.0 mi East 12.7 mph 20.7 mph N/A   Clear
1:35 PM 64.4 °F 10.4 °F 12% 30.12 in 10.0 mi NE 12.7 mph 23.0 mph N/A   Clear
1:55 PM 66.2 °F 10.4 °F 11% 30.11 in 10.0 mi East 3.5 mph 16.1 mph N/A   Clear
2:15 PM 66.2 °F 10.4 °F 11% 30.11 in 10.0 mi East 3.5 mph - N/A   Clear
2:35 PM 66.2 °F 10.4 °F 11% 30.10 in 10.0 mi NNW 13.8 mph 28.8 mph N/A   Clear
2:55 PM 64.4 °F 10.4 °F 12% 30.09 in 10.0 mi NE 6.9 mph - N/A   Clear
3:15 PM 66.2 °F 10.4 °F 11% 30.08 in 10.0 mi NW 9.2 mph - N/A   Clear
3:35 PM 66.2 °F 10.4 °F 11% 30.07 in 10.0 mi SW 3.5 mph - N/A   Clear
3:55 PM 68.0 °F 12.2 °F 12% 30.06 in 10.0 mi North 5.8 mph - N/A   Clear
4:15 PM 69.8 °F 12.2 °F 11% 30.05 in 10.0 mi WSW 10.4 mph - N/A   Clear
4:35 PM 69.8 °F 12.2 °F 11% 30.04 in 10.0 mi WSW 13.8 mph - N/A   Clear
4:55 PM 68.0 °F 12.2 °F 12% 30.04 in 10.0 mi WSW 9.2 mph - N/A   Clear
5:15 PM 68.0 °F 10.4 °F 11% 30.03 in 10.0 mi West 6.9 mph - N/A   Clear
5:35 PM 69.8 °F 10.4 °F 10% 30.02 in 10.0 mi West 8.1 mph - N/A   Clear
5:55 PM 68.0 °F 10.4 °F 11% 30.01 in 10.0 mi Calm Calm - N/A   Clear
6:15 PM 68.0 °F 10.4 °F 11% 30.01 in 10.0 mi NW 8.1 mph - N/A   Clear
6:35 PM 69.8 °F 12.2 °F 11% 30.01 in 10.0 mi West 9.2 mph - N/A   Clear
7:15 PM 68.0 °F 10.4 °F 11% 30.01 in 10.0 mi West 10.4 mph - N/A   Clear
7:35 PM 68.0 °F 10.4 °F 11% 30.01 in 10.0 mi WNW 8.1 mph - N/A   Clear
7:55 PM 66.2 °F 10.4 °F 11% 30.00 in 10.0 mi WNW 5.8 mph - N/A   Clear
8:15 PM 66.2 °F 8.6 °F 11% 30.00 in 10.0 mi West 8.1 mph - N/A   Clear
8:35 PM 64.4 °F 8.6 °F 11% 30.00 in 10.0 mi WNW 6.9 mph - N/A   Clear
8:55 PM 64.4 °F 8.6 °F 11% 30.01 in 10.0 mi West 5.8 mph - N/A   Clear
9:15 PM 62.6 °F 6.8 °F 11% 30.01 in 10.0 mi NE 8.1 mph - N/A   Clear
9:35 PM 60.8 °F 6.8 °F 12% 30.01 in 10.0 mi ENE 12.7 mph - N/A   Clear
9:55 PM 60.8 °F 6.8 °F 12% 30.02 in 10.0 mi ENE 17.3 mph 23.0 mph N/A   Clear
10:15 PM 59.0 °F 5.0 °F 12% 30.01 in 10.0 mi ENE 15.0 mph - N/A   Clear
10:35 PM 59.0 °F 5.0 °F 12% 30.02 in 10.0 mi ENE 13.8 mph - N/A   Clear
10:55 PM 59.0 °F 5.0 °F 12% 30.02 in 10.0 mi NE 13.8 mph 17.3 mph N/A   Clear
11:15 PM 57.2 °F 5.0 °F 12% 30.03 in 10.0 mi East 6.9 mph 18.4 mph N/A   Clear
11:35 PM 57.2 °F 3.2 °F 11% 30.03 in 10.0 mi NE 5.8 mph - N/A   Clear